User: anonymous   Login
Location: Newark
(52.3500°N, 175.9667°E)
Time: 02:31:03
(UTC+00:00)
Language:

Transit 2A Rocket - Orbit

View from above orbital plane
View from above orbital plane
View from above satellite
View from above satellite

Ground track
Ground track

The orbit data is extracted from the following two-line orbital elements,

1 00047U 60007C   21110.58572514  .00000046  00000-0  35454-4 0  9991
2 00047  66.6672  53.7414 0220035  78.1166 284.4518 14.42144572178968
Epoch (UTC): 20 April 2021 14:03:26
Eccentricity: 0.0220035
inclination: 66.6672°
perigee height: 594 km
apogee height: 908 km
right ascension of ascending node: 53.7414°
argument of perigee: 78.1166°
revolutions per day: 14.42144572
mean anomaly at epoch: 284.4518°
orbit number at epoch: 17896

The dashed part of the orbit path shows where the satellite is in the earth's shadow,  

DLR